Location: Rochester
(43.1610°N, 77.6109°W)
Time: 04:32:47
(UTC-05:00)

CUTE 1.7 + AOD 2 - Pass Details

Date: 26 October 2021
Orbit: 592 x 610 km, 97.6° (Epoch: 28 November)

Event Time Altitude Azimuth Distance (km) Brightness Sun altitude
Rises 04:20:21 0° 29° (NNE) 2,882 ? -36.3°
Reaches altitude 10° 04:23:12 10° 49° (NE) 1,970 ? -35.8°
Maximum altitude 04:26:05 18° 92° (E) 1,530 ? -35.3°
Enters shadow 04:26:14 18° 94° (E) 1,531 ? -35.3°
